Location: Landau
(49.1984°N, 8.1169°E)
Time: 10:00:01
(UTC+00:00)

Daily predictions for brighter satellites

Satellite Brightness Start Highest point End
(mag) Time Altitude Azimuth Time Altitude Azimuth Time Altitude Azimuth
Okean O Rocket 2.2 19:34:59 10° SE 19:38:59 40° ENE 19:43:01 10° N
Cosmos 2100 Rocket 4.3 19:34:20 10° SSW 19:40:35 76° W 19:46:57 10° N
Meteor 1-27 4.2 19:36:25 10° S 19:42:00 69° E 19:47:34 10° NNE
Cosmos 2228 3.2 19:38:26 10° SSE 19:42:22 48° E 19:46:20 10° NNE
SPOT 5 4.2 19:38:59 10° SSW 19:42:57 35° W 19:47:02 10° NNW
SL-24 R/B 4.3 19:39:00 10° NNE 19:43:18 87° WNW 19:48:02 10° SSW
SL-16 R/B 2.9 19:37:58 10° NNW 19:43:21 41° NE 19:48:41 10° ESE
USA 186 2.7 19:41:17 10° SE 19:43:37 25° ENE 19:45:59 10° N
Okean 1 Rocket 4.1 19:44:19 10° SSW 19:48:35 49° WNW 19:52:55 10° N
Cosmos 2233 Rocket 4.1 19:45:02 10° S 19:51:05 60° E 19:57:08 10° NNE
Cosmos 2084 Rocket 3.8 19:47:00 10° NW 19:51:08 58° SW 19:55:18 10° SSE
ATLAS 2AS CENTAUR R/B 4.4 19:45:45 10° W 19:52:06 37° NNW 19:58:22 10° NE
SKYMED 3 4.3 19:53:26 10° NNE 19:57:25 75° ESE 20:01:22 10° S
COSMOS 2406 3.7 19:52:53 10° S 19:58:14 41° ESE 20:03:35 10° NE
Cosmos 1980 Rocket 3.2 19:53:33 10° NW 19:58:55 43° WSW 20:04:13 10° S
Okean-O 2.7 19:55:26 10° SSE 19:59:45 63° ENE 20:04:05 10° N
Cosmos 1782 2.5 19:56:15 10° S 19:59:46 86° W 20:03:19 10° N
CZ-4 R/B 2.9 19:57:00 10° SSW 20:00:14 30° W 20:03:30 10° NNW
MetOp-B 4.5 19:55:05 10° S 20:00:24 69° WSW 20:05:46 10° NNW
Ariane Rocket 4.0 19:58:02 10° SE 20:02:29 32° ENE 20:06:57 10° N
Cosmos 1933 4.4 20:02:11 11° SE 20:05:07 25° E 20:08:18 10° NNE
SPOT 3 Rocket 4.1 20:01:10 11° SE 20:05:52 42° ENE 20:10:42 10° N
Cosmos 1758 Rocket 3.9 20:02:19 10° N 20:06:37 50° ENE 20:10:37 12° SSE
Spot 2 Rocket 3.5 20:02:42 10° SSE 20:07:43 83° ENE 20:12:46 10° NNW
Cosmos 1725 Rocket 4.3 20:03:33 10° SSW 20:09:48 73° W 20:16:03 10° N
Cosmos 2333 Rocket 2.5 20:05:39 10° NNW 20:11:17 57° NE 20:16:16 13° SE
ERS-1 Rocket 4.0 20:09:06 10° S 20:13:52 44° W 20:18:41 10° NNW
Tsikada Rocket 4.1 20:12:16 10° NNW 20:18:26 80° W 20:24:35 10° S
Cosmos 2016 Rocket 4.5 20:18:15 10° SSW 20:24:26 63° WNW 20:30:35 10° N
USA 245 4.4 20:19:40 12° SSE 20:25:02 67° ENE 20:30:31 10° N
Cosmos 2360 Rocket 2.9 20:19:42 10° NNW 20:25:09 44° NE 20:29:39 15° ESE
Cosmos 1461 2.7 20:22:34 10° SSW 20:26:09 48° ESE 20:29:44 10° NE
CZ-4B R/B 4.2 20:21:33 10° S 20:26:57 46° W 20:32:21 10° NNW
CZ-4B R/B 3.7 20:25:36 16° SE 20:29:18 53° ENE 20:34:02 10° N
CZ-4C R/B 3.7 20:26:00 10° W 20:30:12 35° NNW 20:35:32 10° NE
Cosmos 1992 Rocket 4.0 20:25:35 10° SSW 20:30:48 88° WNW 20:36:02 10° NNE
Cosmos 1602 Rocket 3.9 20:26:37 10° N 20:30:50 50° ENE 20:33:49 18° SSE
YAOGAN 11 4.1 20:29:39 10° NNE 20:34:07 89° WNW 20:38:35 10° SSW
ISS -3.1 20:33:52 10° W 20:37:09 55° N 20:40:27 10° ENE
Cosmos 1777 Rocket 4.4 20:32:24 10° NNW 20:37:32 51° ENE 20:41:09 19° SE
Cosmos 2219 Rocket 3.2 20:33:15 10° NNW 20:38:30 37° NE 20:42:48 15° ESE
Cosmos 220 Rocket 4.1 20:36:01 13° S 20:39:24 46° ESE 20:43:20 10° NE
Meteor 1-25 Rocket 4.3 20:33:50 10° N 20:39:30 69° ENE 20:43:46 18° SSE
Cosmos 1437 Rocket 2.4 20:36:40 14° S 20:39:39 68° E 20:43:13 10° NNE
USA 290 3.7 20:39:46 19° ESE 20:39:46 19° ESE 20:42:03 10° NE
SL-08 R/B 4.2 20:39:40 10° N 20:44:21 52° WNW 20:48:56 10° SW
DEBRIS 3.5 20:43:42 10° W 20:46:54 89° N 20:57:08 10° E
Cosmos 1626 Rocket 4.0 20:42:53 10° NNW 20:47:11 59° W 20:51:00 13° S
Cosmos 2098 Rocket 3.5 20:44:23 19° SSE 20:47:33 47° E 20:51:35 10° NNE
NOSS 3-3 (A) 4.2 20:44:11 10° SW 20:49:25 67° NW 20:55:47 10° NE
Terra 3.9 20:48:03 10° SW 20:51:42 22° W 20:55:23 10° NW
Cosmos 2151 3.2 20:51:07 10° NNW 20:55:13 65° W 20:58:09 18° S
Cosmos 2322 Rocket 2.2 20:51:23 10° NNW 20:57:04 76° ENE 21:00:46 23° SE
Cosmos 1486 Rocket 4.0 20:51:55 10° NNW 20:57:13 81° ENE 21:00:35 23° SSE
Cosmos 1513 Rocket 4.4 20:51:10 11° S 20:57:15 80° E 21:03:24 10° NNE
IRS-1C Rocket 4.1 20:53:40 20° SSE 20:57:28 88° ENE 21:02:46 10° NNW
Cosmos 1464 Rocket 4.1 20:53:50 18° SSE 20:58:26 58° E 21:04:29 10° NNE
Cosmos 2082 Rocket 3.6 20:56:01 10° WSW 21:01:23 41° NW 21:06:47 10° NNE
USA 306 3.8 21:01:15 10° WNW 21:03:27 21° NNW 21:04:50 11° NE
Cosmos 1606 Rocket 3.7 21:03:17 26° SSE 21:05:28 53° E 21:09:41 10° NNE
Meteor 2-10 4.3 20:59:54 10° N 21:05:39 73° ENE 21:09:14 24° SSE
CZ-4B R/B 3.3 21:09:42 22° SSW 21:11:31 44° W 21:14:51 10° NNW
Cosmos 1766 4.3 21:09:54 10° NNE 21:12:30 22° ENE 21:13:02 21° E
USA 186 4.1 21:11:25 10° SW 21:13:01 14° W 21:14:39 10° NW
Cosmos 1726 Rocket 3.7 21:12:34 32° SE 21:13:57 45° E 21:17:50 10° NNE
Cosmos 2237 Rocket 4.5 21:10:55 10° N 21:14:27 16° NE 21:17:58 10° ENE
Okean O Rocket 3.5 21:11:51 10° SSW 21:15:19 24° W 21:18:49 10° NW
Cosmos 1428 Rocket 4.5 21:09:07 10° N 21:15:22 74° E 21:19:09 25° SSE
Cosmos 540 Rocket 3.9 21:13:17 27° SSE 21:15:29 41° ESE 21:20:18 10° NE
Cosmos 1072 Rocket 4.5 21:11:32 16° S 21:16:37 83° E 21:23:01 10° N
Cosmos 1805 3.2 21:17:59 10° NNW 21:21:13 56° W 21:22:21 34° SSW
Cosmos 2278 4.2 21:17:27 10° NW 21:23:00 54° WSW 21:26:23 23° S
Meteor 1-5 Rocket 4.4 21:19:56 10° NNW 21:25:41 75° W 21:29:21 24° S
COSMOS 2428 4.0 21:21:12 10° NNW 21:26:17 32° NE 21:30:13 15° ESE
SL-16 R/B 3.1 21:22:10 10° NW 21:27:25 40° WSW 21:30:55 19° SSW
CZ-2C R/B 2.7 21:27:14 38° SW 21:27:44 43° W 21:30:25 10° NNW
Okean 1-7 Rocket 3.7 21:23:54 10° NNW 21:28:21 71° W 21:30:35 29° S
Geosat 4.3 21:28:37 10° NE 21:33:25 44° ESE 21:35:08 32° SSE
NOSS 3-4 (A) 4.0 21:27:26 10° NW 21:34:06 64° SW 21:38:39 26° SSE
NOSS 3-4 (C) 4.0 21:28:04 10° NW 21:34:46 65° SW 21:39:17 27° SSE
Cosmos-2242 3.4 21:34:03 37° SE 21:34:56 43° E 21:38:51 10° NNE
Cosmos 2034 Rocket 4.0 21:32:54 25° S 21:36:49 74° E 21:43:09 10° NNE
Ariane Rocket 3.9 21:38:06 19° SSW 21:41:15 40° W 21:46:02 10° NNW
USA 234 4.4 21:42:29 10° ENE 21:47:11 22° ESE 21:47:11 22° ESE
TSX-5 4.3 21:46:35 10° NNW 21:49:32 36° NE 21:50:06 33° ENE
Nadezhda 4 Rocket 4.4 21:46:30 10° NNW 21:52:28 56° W 21:56:13 23° SSW
Cosmos 2333 Rocket 3.6 21:50:28 10° NW 21:55:14 28° WSW 21:58:17 18° SSW
Helios 1B rocket 2.3 21:55:11 49° E 21:55:36 53° ENE 21:59:02 10° N
Cosmos 1763 Rocket 3.5 21:53:12 23° SSW 21:56:33 85° WNW 22:01:52 10° NNE
Cosmos 1825 Rocket 4.4 21:53:21 10° NNW 21:57:28 42° W 21:59:17 27° SW
Okean 1 3.8 21:56:18 31° SW 21:57:37 46° WNW 22:01:06 10° N
Cosmos 1470 3.6 21:55:12 10° N 21:58:09 29° ENE 21:58:12 29° ENE
Cosmos 1536 2.6 21:55:03 10° N 21:58:44 66° E 21:59:12 58° ESE
Cosmos 1707 2.3 21:59:51 58° NNE 21:59:51 58° NNE 22:02:13 10° NNE
Cosmos 2221 3.8 21:59:07 25° E 21:59:24 25° E 22:02:49 10° NNE
Cosmos 1898 Rocket 4.1 21:54:48 10° NNW 21:59:49 47° ENE 22:02:03 29° ESE
Cosmos 1634 Rocket 4.0 21:57:45 33° SSE 22:00:30 64° E 22:06:38 10° NNE
CSL-04 DEB 4.3 22:01:35 50° ESE 22:02:03 54° ENE 22:05:37 10° N
Cosmos 1833 4.2 21:57:58 20° SSW 22:02:04 85° WNW 22:07:45 10° NNE
Cosmos 2297 Rocket 3.8 22:01:44 17° ESE 22:02:08 17° E 22:05:38 10° ENE
Cosmos 1953 Rocket 3.8 21:59:20 10° NNW 22:03:37 62° W 22:04:56 41° SSW
CZ-2C R/B 4.4 21:59:31 10° NNE 22:03:40 36° E 22:04:14 35° ESE
Cosmos 44 3.4 21:59:30 10° NW 22:04:57 88° SW 22:06:56 40° SE
Cosmos 990 Rocket 4.2 21:59:56 10° NNW 22:05:01 59° WSW 22:06:54 37° S
Cosmos 2360 Rocket 3.2 22:03:54 10° NW 22:09:03 36° WSW 22:11:23 25° SSW
Cosmos 2322 3.9 22:05:35 10° NNW 22:11:17 65° ENE 22:13:46 34° SE
USA 290 4.1 22:12:10 19° WSW 22:13:41 28° WNW 22:16:28 10° N
ISS -3.7 22:10:49 10° WNW 22:14:11 76° NNE 22:14:19 74° NE
BREEZE-M DEB (TANK) 4.0 22:13:02 10° W 22:13:11 11° W 22:13:11 11° W
Cosmos 2026 Rocket 4.2 22:08:49 10° NNW 22:15:09 66° W 22:18:17 31° SSW
Cosmos 2058 Rocket 3.0 22:14:25 49° SSW 22:15:34 84° W 22:19:55 10° N
Helios 1A 3.0 22:17:37 10° N 22:21:30 64° WNW 22:22:30 45° SW
Cosmos 2219 Rocket 2.8 22:17:10 10° NW 22:22:32 45° WSW 22:24:29 33° SSW
KORONAS-FOTON 3.4 22:25:06 77° WNW 22:25:06 77° WNW 22:28:29 10° N
Cosmos 1975 3.0 22:21:39 10° N 22:25:15 50° ENE 22:25:24 49° E
Cosmos 841 Rocket 3.8 22:28:15 43° SE 22:29:15 49° ESE 22:34:18 10° NNE
RESURS DK-1 2.2 22:28:08 10° NNW 22:32:07 77° ENE 22:32:35 66° ESE
ARIANE 5 R/B 2.6 22:32:16 54° SE 22:33:12 75° ENE 22:37:41 10° N
ALOS 2 2.7 22:33:58 50° SE 22:34:52 65° ENE 22:39:14 10° N
Cosmos 2322 Rocket 3.9 22:36:29 10° NW 22:40:28 20° W 22:42:34 16° SW
Cosmos 1271 Rocket 2.5 22:46:13 69° NW 22:46:13 69° NW 22:49:25 10° N
Cosmos 372 Rocket 4.2 22:41:43 10° NNW 22:46:44 57° WSW 22:47:53 46° SSW
SL-16 R/B 4.4 22:42:48 10° N 22:47:05 21° NE 22:51:21 10° E
Cosmos 1842 3.4 22:47:39 49° NW 22:47:39 49° NW 22:50:27 10° N
Lacrosse 4 Rocket 3.3 22:51:57 17° E 22:51:57 17° E 22:53:44 10° ENE
Spot 4 3.8 22:51:57 54° S 22:52:59 74° WSW 22:57:47 10° NNW
Meteor 2-9 Rocket 4.1 22:48:55 10° NNW 22:54:19 76° W 22:55:56 47° S
PSLV R/B 3.5 22:51:15 10° NNE 22:55:31 66° ESE 22:55:59 60° SE
Cosmos 2237 Rocket 2.5 22:54:06 10° NNW 22:59:45 60° ENE 23:02:17 32° SE
CZ-2C R/B 3.2 22:58:57 31° ESE 23:01:00 47° ENE 23:05:59 10° N
BREEZE-M DEB (TANK) 4.1 22:45:57 10° WSW 23:01:34 88° SSE 23:05:23 10° ENE
Cosmos 1980 3.9 22:58:16 10° NNW 23:03:55 69° ENE 23:06:13 36° SE
ARGOS Delta rocket 4.0 22:59:46 10° N 23:04:57 86° WNW 23:06:31 48° SSW
Cosmos 858 Rocket 4.4 23:00:05 10° NNW 23:05:18 83° ENE 23:06:42 49° SSE
Cosmos 2142 Rocket 4.5 23:05:17 40° SSW 23:07:43 82° W 23:13:59 10° N
Cosmos 1937 Rocket 3.4 23:03:16 10° NNW 23:08:23 68° WSW 23:09:27 53° SSW
Cosmos 2180 Rocket 4.5 23:06:36 40° SSW 23:09:01 83° W 23:15:24 10° N
COSMOS 2428 2.9 23:05:16 10° NW 23:10:50 56° WSW 23:12:11 44° SSW
Cosmos 2227 Rocket 3.5 23:11:04 24° ESE 23:11:59 25° ESE 23:16:31 10° NE
Meteor 2-4 Rocket 4.2 23:11:49 37° SE 23:13:12 44° E 23:18:25 10° NNE
NOSS 0 Rocket 3.9 23:07:21 10° NW 23:13:30 70° WSW 23:15:26 44° S
Meteor 1-11 Rocket 3.6 23:08:28 10° NNW 23:14:09 80° W 23:15:45 48° S
MetOp-A 3.8 23:18:10 55° SSE 23:19:15 88° E 23:23:59 10° NNW
Meteor 1-10 Rocket 4.3 23:17:23 44° SSW 23:19:25 84° WNW 23:25:24 10° N
Cosmos 2263 Rocket 3.8 23:20:54 18° ESE 23:21:57 19° E 23:25:46 10° ENE
Cosmos 1812 Rocket 3.8 23:25:18 50° WSW 23:26:04 58° WNW 23:30:26 10° N
Cosmos 1238 Rocket 3.0 23:25:54 57° ESE 23:26:05 58° E 23:30:21 10° NNE
USA 234 3.2 23:24:41 10° ENE 23:31:14 70° SE 23:34:30 32° SW
SeaSat 1 3.2 23:28:36 24° ESE 23:31:15 49° NE 23:35:59 10° NNW
CZ-2C R/B 3.3 23:28:06 10° NNE 23:33:54 84° ESE 23:35:48 45° S
Meteor 1-27 Rocket 3.7 23:32:34 46° S 23:34:25 85° E 23:40:11 10° NNE
ACS3 Solar Sail 2.7 23:29:41 10° NNE 23:35:06 34° E 23:37:20 26° SE
Cosmos 2221 3.6 23:35:23 30° W 23:36:16 33° WNW 23:40:06 10° N
ATLAS 2AS CENTAUR R/B 4.3 23:31:49 10° NW 23:37:53 33° NNE 23:43:56 10° E
Meteor 2-20 Rocket 4.2 23:37:28 46° S 23:39:15 80° E 23:44:59 10° NNE
BlueWalker 3 3.6 23:41:18 22° E 23:41:18 22° E 23:42:47 10° ENE
Cosmos 2297 Rocket 2.1 23:43:29 44° SSW 23:45:23 86° WNW 23:51:05 10° NNE
Okean 3 Rocket 4.4 23:43:38 10° N 23:47:59 45° ENE 23:49:21 34° ESE
Landsat 5 3.4 23:47:20 10° NNE 23:51:24 64° ESE 23:51:40 62° SE
Cosmos 1842 Rocket 3.6 23:53:33 56° SE 23:54:11 65° E 23:58:35 10° NNE
GP-B 3.8 23:51:13 10° NNW 23:55:19 39° W 23:56:01 36° WSW
